Location: Barnston
(51.8500°N, 0.4000°E)
Time: 00:59:32
(UTC+00:00)

CZ-2C R/B - Visible Passes

Search period start: 24 April 2024 00:00
Search period end: 04 May 2024 00:00
Orbit: 702 x 905 km, 98.2° (Epoch: 23 April)

Date Brightness Start Highest point End Pass type
(mag) Time Alt. Az. Time Alt. Az. Time Alt. Az.
24 Apr 5.6 00:39:57 10° ENE 00:41:51 12° E 00:43:48 10° ESE visible
24 Apr 3.4 02:17:18 10° NNE 02:22:37 66° ESE 02:26:20 21° S visible
24 Apr 4.4 03:57:48 10° N 04:02:04 25° WNW 04:06:30 10° WSW visible
25 Apr 4.1 01:51:57 10° NNE 01:57:04 43° E 02:00:42 19° SSE visible
25 Apr 3.9 03:31:59 10° N 03:36:50 37° WNW 03:41:44 11° SW visible
26 Apr 4.7 01:26:47 10° NE 01:31:25 28° E 01:35:04 15° SE visible
26 Apr 3.4 03:06:17 10° N 03:11:30 56° WNW 03:16:05 15° SW visible
27 Apr 5.3 01:01:55 10° NE 01:05:41 19° E 01:09:25 10° SE visible
27 Apr 3.2 02:40:42 10° NNE 02:46:06 83° WNW 02:50:27 18° SSW visible
28 Apr 5.6 00:37:51 10° ENE 00:39:51 12° E 00:41:53 10° ESE visible
28 Apr 3.5 02:15:13 10° NNE 02:20:38 66° ESE 02:24:48 18° S visible
28 Apr 4.4 03:55:40 10° N 04:00:05 26° WNW 04:04:40 10° WSW visible
29 Apr 4.1 01:49:52 10° NNE 01:55:04 43° E 01:59:09 17° SSE visible
29 Apr 4.0 03:29:52 10° N 03:34:51 38° WNW 03:40:01 10° SW visible
30 Apr 4.8 01:24:42 10° NNE 01:29:25 28° E 01:33:30 13° SSE visible
30 Apr 3.5 03:04:11 10° N 03:09:31 57° WNW 03:14:32 13° SW visible
01 May 5.3 00:59:49 10° NE 01:03:40 19° E 01:07:35 10° SE visible
01 May 3.2 02:38:35 10° NNE 02:44:07 85° WNW 02:48:52 15° SSW visible
02 May 5.7 00:35:45 10° ENE 00:37:49 12° E 00:39:54 10° ESE visible
02 May 3.6 02:13:06 10° NNE 02:18:37 65° ESE 02:23:12 16° S visible
03 May 4.2 01:47:45 10° NNE 01:53:03 43° E 01:57:32 15° SSE visible
03 May 4.0 03:27:43 10° N 03:32:50 40° WNW 03:38:06 10° SW visible
